COSMOS 1275 DEB, 13462

Orbit data source: Space-Track

COSMOS 1275 DEB, 13462 is space debris in LEO originally from a launch on Thu, 04 Jun 1981 UTC launched from the Plesetsk Missile And Space Complex (PKMTR). Debris objects in space refer to the collection of defunct objects orbiting the Earth. Examples of debris include non-operational satellites, rocket bodies, and fragments generated from explosions, collisions, or faulty payload assembly.

Loading next visibility...
Identifier
13462, 1981-053FJ
Orbit
LEO
Country
Flag of CISCIS
Related business
Manufacturer
Unknown
Mission
Spacecraft
Bus & Motor
Unknown
Mass
Unknown
Launch date (UTC)
1981-06-04 (45 years ago)
Launch vehicle
Unknown
Launch site
Plesetsk Missile And Space Complex (PKMTR)
Object type
Payload
Rocket body
Debris
Shape & HBR
Unknown shape, 0.1 m
Radar Cross Section
Small (<0.1 m²)

Expand to show TLE details & history
Last TLE update: 10 hours ago

TLE from 10 hours ago
0 COSMOS 1275 DEB
1 13462U 81053FJ  25347.33351184  .00001770  00000-0  17481-2 0  9990
2 13462  82.8159 185.6366 0165662 359.8231 175.1728 13.72227698161885
Epoch: 2025-12-13T08:00Z
TLE epoch observation values (Epoch: 2025-12-13T08:00:15.422Z)
Latitude
4.72388°
Longitude
162.7163°
Altitude
1,115.682 km
Speed
7.235 km/s
True Right ascension
00h 20m 10s
True Declination
4° 41' 50"
Sunlit
Object was in daylight at epoch
Visualization orbit readout
Latitude
Unknown
Longitude
Unknown
Altitude
Unknown
Speed
Unknown
Apparent Right ascension
Unknown
Apparent Declination
Unknown
Sunlit
N/A
Visualization observer readout
Local Sidereal Time
17:00:16
Azimuth
Unknown
Elevation
Unknown
Doppler factor
Unknown
Orbital elements
Apogee altitude
1,110.782 km
Perigee altitude
866.699 km
Semi-major axis
7,366.877 km
Eccentricity
0.01657
Inclination
82.8159°
RAAN
185.6366°
Arg. of periapsis
359.8231°
True anomaly
175.32932°
Mean anomaly
175.1728°
Eccentric anomaly
175.25138°
Mean motion
3.43256 °/min
Orbital period
104.88 mins
BSTAR
0.0017481
Loading maneuver chart data...
Computing Atmospheric mass density...
Loading historical data...
Loading historical data...
Loading historical data...
Loading historical data...
Loading historical data...
Loading historical data...
Loading historical data...

Documentation

Showing up to 5 results
|